ORBCOMM FM 21

Satellite information

Favourite Embed

Satellite Type and Status

PAYLOADIN ORBIT

Key statistics

Satellite ORBCOMM FM 21 at a glance.

Uptime

9944

Days in orbit

Revolutions

≈ 14.4

Per day

Orbit

LEO

Low Earth Orbit

Inclination

45.0

Latest

Satellite identification and parameters

Extended collection of information and parameters for ORBCOMM FM 21.

Object identification

Identified? True

Debris? False

Object name: ORBCOMM FM 21

International designator: 1998-053A

Object number (NORAD): 25475

Object ID (CCSDS): 25475

Country: ORBITAL TELECOMMUNICATIONS SATELLITE (GLOBALSTAR) (ORB)

Current information (Y/N): Y

RCS size: MEDIUM

Orbital parameters

Period: 100.154 minutes

Inclination: 45.0065 deg

SMA: 7143.941 km

Apoapsis: 766.75 km

Periapsis: 764.862 km

RAAN: 146.5225 deg

Eccentricy: 0.00013217

Argument of periapsis: 77.0402 deg

Mean anomaly: 283.0594 deg

Mean motion: 14.37791758 rev/day

Mean motion (dot): 0.00001486 rev/day2

B* drag term: 0.00053562065 1/REarth

Two-line elements (TLE)

Creation date: Dec. 12, 2025, 10:14 a.m.

Reference frame: TEME

Reference center: EARTH

Epoch: Dec. 12, 2025, 3:19 a.m. UTC

TLE line 0: 0 ORBCOMM FM 21

TLE line 1: 1 25475U 98053A 25346.13882239 .00001486 00000-0 53562-3 0 9997

TLE line 2: 2 25475 45.0065 146.5225 0001322 77.0402 283.0594 14.37791758422852

Live tracking on map

Real-time ground track for satellite ORBCOMM FM 21.

In-orbit conjunctions

There are no conjunctions computed for ORBCOMM FM 21, at the moment. Check back to stay up to date, as we update our databases every day.

Go to all conjunctions

Associated space launch

ORBCOMM FM 21 was lifted into orbit during the mission ‘Pegasus XL HAPS | Orbcomm-C1 - C8’, on board a Pegasus XL HAPS space rocket.

The launch took place on Sept. 23, 1998, 5:06 a.m. from Wallops Flight Facility.

For more information about the launch, click the button.

Launch to space Pegasus XL HAPS | Orbcomm-C1 - C8
Pegasus XL HAPS | Orbcomm-C1 - C8

Agency: N/A

Status: Launch Successful

Launch date: Sept. 23, 1998, 5:06 a.m. UTC

Rocket: Pegasus XL HAPS

Launch pad: Wallops Flight Facility

Location: Air launch to orbit

...

Latest news about this satellite

There are no fresh news available about this satellite. Check back as we update our databases every day.


Newsletter sign-up

Weekly statistics, charts and insights to help you stay on top of the space industry.